| time (UTC) | temp F | wind direction | speed knots | gust knots | rain 1hr in | rain 24hr in | rain mn in | humidity % | barometer mb |
| 20260509210338 | 57 | 17 | 0.0 | 0.0 | 0.00 | 0.00 | 0.00 | 63 | 1019.4 |
| 20260509204825 | 56 | 17 | 0.0 | 0.0 | 0.00 | 0.00 | 0.00 | 65 | 1019.4 |
| 20260509203330 | 56 | 17 | 0.0 | 0.0 | 0.00 | 0.00 | 0.00 | 63 | 1019.2 |
| 20260509201838 | 56 | 17 | 0.0 | 0.0 | 0.00 | 0.00 | 0.00 | 63 | 1019.0 |
| 20260509200318 | 56 | 17 | 0.0 | 0.0 | 0.00 | 0.00 | 0.00 | 63 | 1018.8 |
| 20260509194826 | 56 | 17 | 0.0 | 0.0 | 0.00 | 0.00 | 0.00 | 62 | 1018.6 |
| 20260509193337 | 56 | 17 | 0.0 | 0.0 | 0.00 | 0.00 | 0.00 | 62 | 1018.4 |
| 20260509191839 | 56 | 17 | 0.0 | 0.0 | 0.00 | 0.00 | 0.00 | 63 | 1018.3 |
| 20260509190322 | 56 | 17 | 0.0 | 0.0 | 0.00 | 0.00 | 0.00 | 63 | 1018.1 |
| 20260509184815 | 56 | 17 | 0.0 | 0.0 | 0.00 | 0.00 | 0.00 | 63 | 1018.0 |
| 20260509183341 | 56 | 17 | 0.0 | 0.0 | 0.00 | 0.00 | 0.00 | 62 | 1017.8 |
| 20260509181829 | 57 | 17 | 0.0 | 0.0 | 0.00 | 0.00 | 0.00 | 59 | 1017.6 |
| 20260509180329 | 57 | 17 | 0.0 | 0.0 | 0.00 | 0.00 | 0.00 | 55 | 1017.4 |
| 20260509174815 | 58 | 17 | 0.0 | 0.0 | 0.00 | 0.00 | 0.00 | 53 | 1017.2 |
| 20260509173319 | 58 | 17 | 0.0 | 0.0 | 0.00 | 0.00 | 0.00 | 51 | 1017.1 |
| 20260509171827 | 58 | 17 | 0.0 | 0.0 | 0.00 | 0.00 | 0.00 | 49 | 1017.1 |
| 20260509170334 | 59 | 17 | 0.0 | 0.0 | 0.00 | 0.00 | 0.00 | 49 | 1017.0 |
| 20260509164842 | 59 | 17 | 0.0 | 0.0 | 0.00 | 0.00 | 0.00 | 48 | 1017.0 |
| 20260509163346 | 60 | 17 | 0.0 | 0.0 | 0.00 | 0.00 | 0.00 | 47 | 1016.9 |
| 20260509161832 | 60 | 17 | 0.0 | 0.0 | 0.00 | 0.00 | 0.00 | 46 | 1017.0 |
| 20260509160311 | 60 | 17 | 0.0 | 0.0 | 0.00 | 0.00 | 0.00 | 45 | 1016.9 |
| 20260509154819 | 61 | 17 | 0.0 | 0.0 | 0.00 | 0.00 | 0.00 | 44 | 1016.7 |
| 20260509153325 | 61 | 17 | 0.0 | 0.0 | 0.00 | 0.00 | 0.00 | 44 | 1016.6 |
| 20260509151813 | 61 | 17 | 0.0 | 0.0 | 0.00 | 0.00 | 0.00 | 43 | 1016.7 |
| 20260509150318 | 62 | 17 | 0.0 | 0.0 | 0.00 | 0.00 | 0.00 | 42 | 1016.8 |
| 20260509144846 | 62 | 17 | 0.0 | 0.0 | 0.00 | 0.00 | 0.00 | 41 | 1016.7 |
| 20260509143334 | 62 | 17 | 0.0 | 0.0 | 0.00 | 0.00 | 0.00 | 40 | 1016.5 |
| 20260509141821 | 62 | 17 | 0.0 | 0.0 | 0.00 | 0.00 | 0.00 | 39 | 1016.4 |
| 20260509140327 | 63 | 17 | 0.0 | 0.0 | 0.00 | 0.00 | 0.00 | 38 | 1016.2 |
| 20260509134835 | 63 | 17 | 0.0 | 0.0 | 0.00 | 0.00 | 0.00 | 37 | 1016.0 |
| 20260509133315 | 63 | 17 | 0.0 | 0.0 | 0.00 | 0.00 | 0.00 | 38 | 1016.0 |
| 20260509131843 | 63 | 17 | 0.0 | 0.0 | 0.00 | 0.00 | 0.00 | 37 | 1015.9 |
| 20260509130325 | 64 | 17 | 0.0 | 0.0 | 0.00 | 0.00 | 0.00 | 35 | 1015.8 |
| 20260509124812 | 64 | 17 | 0.0 | 0.0 | 0.00 | 0.00 | 0.00 | 34 | 1015.8 |
| 20260509123317 | 64 | 17 | 0.0 | 0.0 | 0.00 | 0.00 | 0.00 | 34 | 1015.6 |
| 20260509121824 | 64 | 17 | 0.0 | 0.0 | 0.00 | 0.00 | 0.00 | 36 | 1015.6 |
| 20260509120328 | 64 | 17 | 0.0 | 0.0 | 0.00 | 0.00 | 0.00 | 39 | 1015.7 |
| 20260509114836 | 64 | 17 | 0.0 | 0.0 | 0.00 | 0.00 | 0.00 | 46 | 1015.6 |
| 20260509113320 | 65 | 17 | 0.0 | 0.0 | 0.00 | 0.00 | 0.00 | 50 | 1015.5 |
| 20260509111827 | 65 | 17 | 0.0 | 0.0 | 0.00 | 0.00 | 0.00 | 56 | 1015.1 |
| 20260509110326 | 65 | 17 | 0.0 | 0.0 | 0.00 | 0.00 | 0.00 | 56 | 1015.1 |
| 20260509104813 | 66 | 17 | 0.0 | 0.0 | 0.00 | 0.00 | 0.00 | 55 | 1014.9 |
| 20260509103336 | 66 | 17 | 0.0 | 0.0 | 0.00 | 0.00 | 0.00 | 53 | 1014.7 |
| 20260509101827 | 66 | 17 | 0.0 | 0.0 | 0.00 | 0.00 | 0.00 | 53 | 1014.3 |
| 20260509100332 | 67 | 17 | 0.0 | 0.0 | 0.00 | 0.00 | 0.00 | 53 | 1013.9 |
| 20260509094814 | 68 | 17 | 0.0 | 0.0 | 0.00 | 0.00 | 0.00 | 52 | 1013.8 |
| 20260509093319 | 68 | 17 | 0.0 | 0.0 | 0.00 | 0.00 | 0.00 | 51 | 1013.5 |
| 20260509091827 | 69 | 15 | 0.0 | 0.0 | 0.00 | 0.00 | 0.00 | 50 | 1013.3 |
| 20260509090315 | 71 | 15 | 0.0 | 0.0 | 0.00 | 0.00 | 0.00 | 47 | 1013.2 |
| 20260509084814 | 72 | 15 | 0.0 | 0.0 | 0.00 | 0.00 | 0.00 | 28 | 1012.9 |
| 20260509083320 | 73 | 15 | 0.0 | 0.0 | 0.00 | 0.00 | 0.00 | 29 | 1012.3 |
| 20260509081830 | 73 | 16 | 0.0 | 0.0 | 0.00 | 0.00 | 0.00 | 29 | 1012.1 |
| 20260509080314 | 73 | 15 | 0.9 | 0.0 | 0.00 | 0.00 | 0.00 | 29 | 1011.9 |
| 20260509074823 | 73 | 16 | 0.0 | 0.0 | 0.00 | 0.00 | 0.00 | 31 | 1011.6 |
| 20260509073321 | 74 | 14 | 0.0 | 0.0 | 0.00 | 0.00 | 0.00 | 31 | 1011.6 |
| 20260509071849 | 75 | 14 | 0.0 | 0.0 | 0.00 | 0.00 | 0.00 | 29 | 1011.1 |
| 20260509070318 | 74 | 24 | 0.9 | 0.0 | 0.00 | 0.00 | 0.00 | 30 | 1010.8 |
| 20260509064827 | 75 | 25 | 0.0 | 0.0 | 0.00 | 0.00 | 0.00 | 32 | 1010.5 |
| 20260509063332 | 74 | 5 | 0.9 | 0.0 | 0.00 | 0.00 | 0.00 | 32 | 1010.4 |
| 20260509061814 | 74 | 360 | 0.9 | 0.0 | 0.00 | 0.00 | 0.00 | 32 | 1010.5 |
| 20260509060319 | 74 | 355 | 0.9 | 0.0 | 0.00 | 0.00 | 0.00 | 33 | 1010.3 |
| 20260509054828 | 74 | 5 | 0.9 | 0.0 | 0.00 | 0.00 | 0.00 | 33 | 1010.2 |
| 20260509053326 | 74 | 17 | 0.9 | 0.0 | 0.00 | 0.00 | 0.00 | 32 | 1010.3 |
| 20260509051815 | 74 | 5 | 0.9 | 0.0 | 0.00 | 0.00 | 0.00 | 35 | 1010.2 |
| 20260509050317 | 74 | 360 | 1.7 | 0.0 | 0.00 | 0.00 | 0.00 | 33 | 1010.0 |
| 20260509044846 | 74 | 14 | 0.9 | 0.0 | 0.00 | 0.00 | 0.00 | 36 | 1010.0 |
| 20260509043331 | 74 | 349 | 1.7 | 0.0 | 0.00 | 0.00 | 0.00 | 35 | 1010.0 |
| 20260509041813 | 73 | 355 | 1.7 | 0.0 | 0.00 | 0.00 | 0.00 | 35 | 1009.9 |
| 20260509040347 | 73 | 360 | 1.7 | 0.0 | 0.00 | 0.00 | 0.00 | 36 | 1010.1 |
| 20260509034827 | 73 | 360 | 1.7 | 0.0 | 0.00 | 0.00 | 0.00 | 38 | 1010.1 |
| 20260509033338 | 72 | 355 | 3.5 | 0.0 | 0.00 | 0.00 | 0.00 | 35 | 1010.1 |
| 20260509031819 | 72 | 50 | 2.6 | 0.0 | 0.00 | 0.00 | 0.00 | 35 | 1010.1 |
| 20260509030324 | 72 | 24 | 1.7 | 0.0 | 0.00 | 0.00 | 0.00 | 38 | 1010.0 |
| 20260509024852 | 72 | 355 | 2.6 | 0.0 | 0.00 | 0.00 | 0.00 | 40 | 1010.0 |
| 20260509023316 | 72 | 9 | 2.6 | 0.0 | 0.00 | 0.00 | 0.00 | 36 | 1010.0 |
| 20260509021825 | 72 | 360 | 3.5 | 0.0 | 0.00 | 0.00 | 0.00 | 35 | 1010.1 |
| 20260509020329 | 72 | 33 | 1.7 | 0.0 | 0.00 | 0.00 | 0.00 | 38 | 1010.0 |
| 20260509014816 | 72 | 26 | 0.9 | 0.0 | 0.00 | 0.00 | 0.00 | 39 | 1010.1 |
| 20260509013314 | 72 | 360 | 2.6 | 0.0 | 0.00 | 0.00 | 0.00 | 37 | 1010.0 |
| 20260509011822 | 71 | 355 | 0.0 | 0.0 | 0.00 | 0.00 | 0.00 | 39 | 1010.0 |
| 20260509010329 | 69 | 360 | 0.0 | 0.0 | 0.00 | 0.00 | 0.00 | 37 | 1010.1 |
| 20260509004836 | 69 | 360 | 0.0 | 0.0 | 0.00 | 0.00 | 0.00 | 38 | 1009.9 |
| 20260509003319 | 69 | 360 | 0.0 | 0.0 | 0.00 | 0.00 | 0.00 | 36 | 1009.8 |
| 20260509001826 | 69 | 360 | 0.0 | 0.0 | 0.00 | 0.00 | 0.00 | 38 | 1009.7 |
| 20260509000333 | 69 | 360 | 0.0 | 0.0 | 0.00 | 0.00 | 0.00 | 38 | 1009.2 |
| 20260508234820 | 69 | 360 | 0.0 | 0.0 | 0.00 | 0.00 | 0.00 | 42 | 1009.2 |
| 20260508233325 | 68 | 360 | 0.0 | 0.0 | 0.00 | 0.00 | 0.00 | 39 | 1008.9 |
| 20260508231832 | 67 | 360 | 0.0 | 0.0 | 0.00 | 0.00 | 0.00 | 42 | 1008.8 |
| 20260508230339 | 67 | 360 | 0.0 | 0.0 | 0.00 | 0.00 | 0.00 | 42 | 1008.5 |
| 20260508224826 | 66 | 360 | 0.0 | 0.0 | 0.00 | 0.00 | 0.00 | 44 | 1008.1 |
| 20260508223330 | 65 | 360 | 0.0 | 0.0 | 0.00 | 0.00 | 0.00 | 44 | 1008.0 |
| 20260508221839 | 63 | 360 | 0.0 | 0.0 | 0.00 | 0.00 | 0.00 | 46 | 1007.6 |
| 20260508220315 | 62 | 360 | 0.0 | 0.0 | 0.00 | 0.00 | 0.00 | 45 | 1007.6 |
| 20260508214843 | 61 | 360 | 0.0 | 0.0 | 0.00 | 0.00 | 0.00 | 56 | 1007.3 |
| 20260508213328 | 61 | 360 | 0.0 | 0.0 | 0.00 | 0.00 | 0.00 | 55 | 1007.0 |
| 20260508211832 | 61 | 360 | 0.0 | 0.0 | 0.00 | 0.00 | 0.00 | 56 | 1006.6 |